Regional Weather Roundup
Issued by NWS

Home | Current Version | Previous Version | Text Only | Print | Product List | Glossary On
Versions: 1 2 3 4 5 6 7 8 9 10 11 12 13 14 15 16 17 18 19 20 21 22 23 24 25 26 27 28 29 30
000
ASUS45 KBOU 301307
RWRCO

WEATHER ROUNDUP FOR COLORADO
NATIONAL WEATHER SERVICE DENVER/BOULDER CO
700 AM MDT THU OCT 30 2014

NOTE: "FAIR" INDICATES FEW OR NO CLOUDS BELOW 12000 FEET WITH NO
SIGNIFICANT WEATHER AND/OR OBSTRUCTIONS TO VISIBILITY.

COZ001>005-013-030-031-301400-
...NORTHWEST COLORADO...

CITY           SKY/WX    TMP DP  RH WIND       PRES   REMARKS
CRAIG          PTCLDY    23  19  85 CALM      30.39S
HAYDEN         PTCLDY    32  21  64 E10       30.39R WCI  24
MEEKER         CLEAR     28  22  78 CALM      30.40R
MOUNT WERNER   NOT AVBL
STEAMBOAT SPGS PTCLDY    31  25  77 CALM      30.40S
WALDEN         CLEAR     30  23  74 SE6       30.39S WCI  24
$$

COZ006>008-011-301400-
...WEST CENTRAL VALLEYS...

CITY           SKY/WX    TMP DP  RH WIND       PRES   REMARKS
GRAND JUNCTION PTCLDY    34  20  56 SE6       30.34R WCI  29
MONTROSE       PTCLDY    31  21  66 SE9       30.40R WCI  23
EAGLE          CLEAR     25  19  80 CALM      30.46S
RIFLE          CLEAR     28  19  69 CALM      30.40R
DELTA          PTCLDY    33  19  56 CALM      30.38S
NUCLA          PTCLDY    34  16  47 SE6       30.40S WCI  29
$$

COZ017>023-064>068-301400-
...SOUTHWEST COLORADO...

CITY           SKY/WX    TMP DP  RH WIND       PRES   REMARKS
DURANGO        PTCLDY    25  20  81 NE6       30.35S WCI  18
CORTEZ         CLEAR     29  17  61 NE5       30.34R WCI  24
PAGOSA SPRINGS PTCLDY    29  21  73 CALM      30.38S
TELLURIDE      PTCLDY    36  13  38 E5        30.47S
WOLF CREEK PAS CLEAR     36  16  44 N10G18    30.55S
$$

COZ009-010-012-014-032>034-037-058>063-301400-
...CENTRAL COLORADO...

CITY           SKY/WX    TMP DP  RH WIND       PRES   REMARKS
ASPEN          CLEAR     27  18  69 SW6       30.43S WCI  20
BUENA VISTA    CLEAR     24  16  73 W3        30.42R
COPPER MTN     CLEAR     30  16  55 W15       30.53S WCI  19
BERTHOUD PASS  MOCLDY    23  19  86 NW32G39   30.49S WCI   5
COTTONWOOD PAS CLEAR     43  12  28 CALM      30.46R
GUNNISON       PTCLDY    19  10  68 NE3       30.48R
KREMMLING      PTCLDY    23  21  93 CALM        N/A
LEADVILLE      CLEAR     28  13  53 CALM      30.45R
MONARCH PASS   PTCLDY    30  16  55 W15       30.63R WCI  19
SALIDA         CLEAR     34  16  48 CALM      30.47R
SUNLIGHT       CLEAR     36  18  48 CALM      30.53S
WILKERSON PASS NOT AVBL
$$

COZ069>075-301400-
...SAN LUIS VALLEY/SANGRE DE CRISTO MOUNTAINS...

CITY           SKY/WX    TMP DP  RH WIND       PRES   REMARKS
ALAMOSA        PTCLDY    19  11  70 SE5       30.40R WCI  12
LA VETA PASS   CLEAR     34  12  40 NE13      30.48R WCI  25
SAGUACHE       PTCLDY    36  14  41 NW16      30.41S
$$

COZ035-036-038>040-301400-
...NORTHERN COLORADO FRONT RANGE...

CITY           SKY/WX    TMP DP  RH WIND       PRES   REMARKS
DENVER INTL AP PTCLDY    38  25  59 SW6       30.35R
DMNS CITY PARK   N/A     39  24  55 S3        30.35S
AURORA         PTCLDY    35  25  67 S6        30.37R WCI  29
FRONT RANGE AP CLEAR     43  27  52 SW7       30.36R
ERIE MUNI ARPT CLEAR     34  26  75 CALM      30.36R
BOULDER MUN AP CLEAR     41  23  48 SW5       30.35S
CENTENNIAL     CLEAR     34  25  69 CALM      30.37R
BROOMFIELD     PTCLDY    45  23  42 W5        30.36R
FORT COLLINS   CLEAR     41  27  56 CALM      30.36R
LONGMONT       CLEAR     35  27  71 NW3       30.37R
$$

COZ041-046-047-076>085-087-088-301400-
...PIKES PEAK/PALMER DIVIDE AND SOUTHERN FOOTHILLS...

CITY           SKY/WX    TMP DP  RH WIND       PRES   REMARKS
COLO. SPRINGS  CLEAR     44  22  41 NW13      30.37R
A. F. ACADEMY  CLEAR     33  21  63 N10       30.37R WCI  24
ELLICOTT       CLEAR     38  22  52 N7        30.34R
FALCON         CLEAR     40  21  45 N8        30.38R
FORT CARSON    CLEAR     44  23  44 N12       30.34R
LIMON          CLEAR     33  22  63 CALM      30.34R
MONUMENT HILL  CLEAR     32  21  64 W5        30.37S WCI  27
TRINIDAD       CLEAR     32  18  56 W9        30.35R WCI  24
$$

COZ042>045-048>051-090-091-301400-
...NORTHEAST COLORADO...

CITY           SKY/WX    TMP DP  RH WIND       PRES   REMARKS
GREELEY ARPT   CLEAR     41  21  45 W7        30.35R
AKRON          CLEAR     35  24  64 W10       30.30R WCI  27
BURLINGTON     CLEAR     37  23  56 NW10      30.28R
WRAY           CLEAR     34  26  73 W8        30.27R WCI  27
STERLING       CLEAR     43  30  61 N9        30.29R
HOLYOKE        CLEAR     43  28  56 W10G21    30.27R
FORT MORGAN    CLEAR     35  24  65 W6        30.33R WCI  30
$$

COZ086-089-092>099-301400-
...SOUTHEAST COLORADO...

CITY           SKY/WX    TMP DP  RH WIND       PRES   REMARKS
PUEBLO         CLEAR     34  22  61 W7        30.33R WCI  28
LA JUNTA       CLEAR     38  23  55 W10       30.30R
LAMAR          CLEAR     33  25  72 SW9       30.26R WCI  25
SPRINGFIELD      N/A     41  25  53 NW10      30.26R
$$



USA.gov is the U.S. government's official web portal to all federal, state and local government web resources and services.